When you browse on this site, cookies collect data to enhance your experience and personalize the content and advertising you see.
Visit our Privacy Policy to learn more. By continuing to use the site, you agree to this use of cookies and data.
  • In Spain
  • List of Countries
  • For 7 days
  • Water Temperature
  • Satellite Maps
  • Weather Map
  • Weather Widgets
  • user-avatar
    Login

    Hourly Weather Vysokiy Holm

    Today, 25 May, Saturday

    Time Temperature Precipitation Wind Pressure Humidity
    00:00 +14°C° 0 mm 3 mps 740 mmHg 97%
    01:00 +14°C° 0 mm 3 mps 740 mmHg 97%
    02:00 +14°C° 0 mm 3 mps 740 mmHg 98%
    03:00 +14°C° 0 mm 3 mps 740 mmHg 97%
    04:00 +14°C° 0 mm 3 mps 739 mmHg 97%
    05:00 +14°C° 0 mm 3 mps 739 mmHg 96%
    06:00 +16°C° 0.1 mm 3 mps 739 mmHg 95%
    07:00 +16°C° 0.1 mm 3 mps 739 mmHg 94%
    08:00 +17°C° 0.1 mm 3 mps 739 mmHg 92%
    09:00 +18°C° 0.5 mm 3 mps 739 mmHg 89%
    10:00 +19°C° 0.5 mm 3 mps 739 mmHg 86%
    11:00 +20°C° 0.5 mm 3 mps 739 mmHg 83%
    12:00 +20°C° 0.6 mm 3 mps 739 mmHg 81%
    13:00 +20°C° 0.6 mm 3 mps 738 mmHg 80%
    14:00 +21°C° 0.6 mm 2 mps 738 mmHg 78%
    15:00 +21°C° 0.3 mm 3 mps 738 mmHg 78%
    16:00 +21°C° 0.3 mm 3 mps 738 mmHg 79%
    17:00 +21°C° 0.3 mm 3 mps 737 mmHg 79%
    18:00 +19°C° 0.7 mm 2 mps 737 mmHg 83%
    19:00 +18°C° 0.7 mm 2 mps 737 mmHg 87%
    20:00 +16°C° 0.7 mm 2 mps 737 mmHg 91%
    21:00 +14°C° 0 mm 3 mps 737 mmHg 91%
    22:00 +14°C° 0 mm 3 mps 737 mmHg 92%
    23:00 +13°C° 0 mm 3 mps 737 mmHg 92%

    Tomorrow, 26 May, Sunday

    Time Temperature Precipitation Wind Pressure Humidity
    00:00 +12°C° 0 mm 3 mps 738 mmHg 93%
    01:00 +12°C° 0 mm 2 mps 738 mmHg 94%
    02:00 +12°C° 0 mm 2 mps 738 mmHg 95%
    03:00 +12°C° 0 mm 2 mps 738 mmHg 95%
    04:00 +10°C° 0 mm 2 mps 738 mmHg 95%
    05:00 +10°C° 0 mm 3 mps 739 mmHg 94%
    06:00 +11°C° 0 mm 3 mps 739 mmHg 90%
    07:00 +13°C° 0 mm 3 mps 739 mmHg 85%
    08:00 +14°C° 0 mm 4 mps 739 mmHg 81%
    09:00 +15°C° 0 mm 4 mps 739 mmHg 75%
    10:00 +17°C° 0 mm 4 mps 739 mmHg 70%
    11:00 +18°C° 0 mm 4 mps 739 mmHg 65%
    12:00 +18°C° 0 mm 4 mps 739 mmHg 63%
    13:00 +18°C° 0 mm 4 mps 739 mmHg 62%
    14:00 +19°C° 0 mm 5 mps 739 mmHg 60%
    15:00 +19°C° 0 mm 4 mps 739 mmHg 61%
    16:00 +19°C° 0 mm 4 mps 739 mmHg 63%
    17:00 +18°C° 0 mm 4 mps 738 mmHg 64%
    18:00 +17°C° 0 mm 4 mps 739 mmHg 69%
    19:00 +14°C° 0 mm 3 mps 739 mmHg 74%
    20:00 +13°C° 0 mm 3 mps 739 mmHg 79%
    21:00 +12°C° 0 mm 3 mps 739 mmHg 83%
    22:00 +11°C° 0 mm 3 mps 739 mmHg 86%
    23:00 +11°C° 0 mm 3 mps 739 mmHg 90%

    Day after tomorrow, 27 May, Monday

    Time Temperature Precipitation Wind Pressure Humidity
    00:00 +11°C° 0 mm 3 mps 740 mmHg 89%
    01:00 +11°C° 0 mm 3 mps 740 mmHg 88%
    02:00 +11°C° 0 mm 3 mps 740 mmHg 88%
    03:00 +11°C° 0 mm 3 mps 740 mmHg 88%
    04:00 +11°C° 0 mm 3 mps 740 mmHg 89%
    05:00 +11°C° 0 mm 3 mps 740 mmHg 90%
    06:00 +12°C° 0 mm 4 mps 741 mmHg 86%
    07:00 +13°C° 0 mm 4 mps 741 mmHg 82%
    08:00 +14°C° 0 mm 5 mps 741 mmHg 77%
    09:00 +15°C° 0 mm 5 mps 741 mmHg 75%
    10:00 +16°C° 0 mm 6 mps 741 mmHg 73%
    11:00 +17°C° 0 mm 6 mps 741 mmHg 71%
    12:00 +19°C° 0.1 mm 6 mps 741 mmHg 70%
    13:00 +20°C° 0.1 mm 6 mps 742 mmHg 69%
    14:00 +20°C° 0.1 mm 6 mps 742 mmHg 67%
    15:00 +20°C° 0.4 mm 5 mps 742 mmHg 71%
    16:00 +20°C° 0.4 mm 5 mps 742 mmHg 75%
    17:00 +20°C° 0.4 mm 4 mps 741 mmHg 78%
    18:00 +19°C° 0.5 mm 3 mps 741 mmHg 81%
    19:00 +18°C° 0.5 mm 3 mps 741 mmHg 85%
    20:00 +17°C° 0.5 mm 3 mps 741 mmHg 88%
    21:00 +16°C° 0.1 mm 3 mps 742 mmHg 90%
    22:00 +14°C° 0.1 mm 3 mps 742 mmHg 91%
    23:00 +14°C° 0.1 mm 3 mps 742 mmHg 93%

    28 May, Tuesday

    Time Temperature Precipitation Wind Pressure Humidity
    00:00 +14°C° 0 mm 3 mps 742 mmHg 93%
    01:00 +13°C° 0 mm 3 mps 742 mmHg 94%
    02:00 +13°C° 0 mm 3 mps 742 mmHg 94%
    03:00 +14°C° 0 mm 3 mps 742 mmHg 94%
    04:00 +14°C° 0 mm 3 mps 742 mmHg 95%
    05:00 +14°C° 0 mm 3 mps 742 mmHg 95%
    06:00 +17°C° 0 mm 3 mps 742 mmHg 91%
    07:00 +19°C° 0 mm 4 mps 742 mmHg 87%
    08:00 +20°C° 0 mm 4 mps 742 mmHg 83%
    09:00 +22°C° 0.6 mm 4 mps 742 mmHg 78%
    10:00 +23°C° 0.6 mm 5 mps 742 mmHg 73%
    11:00 +25°C° 0.6 mm 5 mps 742 mmHg 68%
    12:00 +25°C° 0.6 mm 5 mps 742 mmHg 71%
    13:00 +25°C° 0.6 mm 5 mps 742 mmHg 74%
    14:00 +25°C° 0.6 mm 5 mps 742 mmHg 77%
    15:00 +23°C° 1.1 mm 4 mps 742 mmHg 80%
    16:00 +22°C° 1.1 mm 4 mps 742 mmHg 84%
    17:00 +21°C° 1.1 mm 4 mps 742 mmHg 88%
    18:00 +21°C° 0.8 mm 4 mps 742 mmHg 88%
    19:00 +20°C° 0.8 mm 4 mps 742 mmHg 88%
    20:00 +20°C° 0.8 mm 4 mps 742 mmHg 88%
    21:00 +19°C° 0 mm 4 mps 742 mmHg 89%
    22:00 +18°C° 0 mm 4 mps 742 mmHg 90%
    23:00 +17°C° 0 mm 4 mps 742 mmHg 90%

    29 May, Wednesday

    Time Temperature Precipitation Wind Pressure Humidity
    00:00 +17°C° 0 mm 4 mps 742 mmHg 90%
    01:00 +17°C° 0 mm 4 mps 742 mmHg 91%
    02:00 +17°C° 0 mm 4 mps 742 mmHg 91%
    03:00 +17°C° 0 mm 4 mps 741 mmHg 92%
    04:00 +16°C° 0 mm 5 mps 741 mmHg 93%
    05:00 +17°C° 0 mm 5 mps 741 mmHg 93%
    06:00 +19°C° 0 mm 5 mps 741 mmHg 88%
    07:00 +19°C° 0 mm 6 mps 741 mmHg 82%
    08:00 +20°C° 0 mm 6 mps 741 mmHg 76%
    09:00 +21°C° 0 mm 6 mps 741 mmHg 74%
    10:00 +22°C° 0 mm 6 mps 741 mmHg 72%
    11:00 +23°C° 0 mm 6 mps 741 mmHg 70%
    12:00 +24°C° 0 mm 6 mps 741 mmHg 70%
    13:00 +24°C° 0 mm 6 mps 741 mmHg 69%
    14:00 +26°C° 0 mm 6 mps 741 mmHg 69%
    15:00 +24°C° 1.2 mm 6 mps 741 mmHg 73%
    16:00 +25°C° 1.2 mm 5 mps 741 mmHg 77%
    17:00 +23°C° 1.2 mm 4 mps 741 mmHg 82%
    18:00 +22°C° 1.7 mm 3 mps 742 mmHg 84%
    19:00 +21°C° 1.7 mm 3 mps 742 mmHg 87%
    20:00 +19°C° 1.7 mm 2 mps 742 mmHg 90%
    21:00 +19°C° 0.9 mm 2 mps 743 mmHg 92%
    22:00 +18°C° 0.9 mm 2 mps 743 mmHg 94%
    23:00 +17°C° 0.9 mm 2 mps 743 mmHg 96%

    30 May, Thursday

    Time Temperature Precipitation Wind Pressure Humidity
    00:00 +17°C° 1.4 mm 3 mps 744 mmHg 96%
    01:00 +16°C° 1.4 mm 3 mps 744 mmHg 96%
    02:00 +14°C° 1.4 mm 4 mps 744 mmHg 96%
    03:00 +14°C° 0.1 mm 4 mps 745 mmHg 96%
    04:00 +13°C° 0.1 mm 4 mps 746 mmHg 96%
    05:00 +13°C° 0.1 mm 4 mps 746 mmHg 96%
    06:00 +13°C° 0 mm 4 mps 747 mmHg 90%
    07:00 +13°C° 0 mm 4 mps 747 mmHg 85%
    08:00 +14°C° 0 mm 4 mps 748 mmHg 79%
    09:00 +15°C° 0 mm 4 mps 748 mmHg 72%
    10:00 +17°C° 0 mm 4 mps 748 mmHg 65%
    11:00 +18°C° 0 mm 4 mps 749 mmHg 58%
    12:00 +18°C° 0 mm 4 mps 749 mmHg 56%
    13:00 +19°C° 0 mm 4 mps 749 mmHg 53%
    14:00 +19°C° 0 mm 3 mps 749 mmHg 51%
    15:00 +19°C° 0 mm 3 mps 749 mmHg 53%
    16:00 +19°C° 0 mm 3 mps 748 mmHg 54%
    17:00 +19°C° 0 mm 3 mps 748 mmHg 56%
    18:00 +17°C° 0 mm 2 mps 748 mmHg 60%
    19:00 +15°C° 0 mm 2 mps 748 mmHg 65%
    20:00 +13°C° 0 mm 2 mps 748 mmHg 69%
    21:00 +13°C° 0 mm 2 mps 748 mmHg 68%
    22:00 +12°C° 0 mm 2 mps 748 mmHg 67%
    23:00 +10°C° 0 mm 2 mps 748 mmHg 66%
    Show more